| time (UTC) | temp F | wind direction | speed MPH | gust MPH | rain 1hr in | rain 24hr in | rain mn in | humidity % | barometer mb |
| 20260505111516 | 43 | 232 | 0.0 | 1.0 | 0.00 | 0.00 | 0.00 | 36 | 1004.6 |
| 20260505111019 | 43 | 232 | 0.0 | 0.0 | 0.00 | 0.00 | 0.00 | 37 | 1004.6 |
| 20260505110516 | 42 | 231 | 0.0 | 0.0 | 0.00 | 0.00 | 0.00 | 37 | 1004.4 |
| 20260505102009 | 44 | 231 | 0.0 | 0.0 | 0.00 | 0.00 | 0.00 | 35 | 1004.3 |
| 20260505101508 | 44 | 231 | 0.0 | 0.0 | 0.00 | 0.00 | 0.00 | 35 | 1004.3 |
| 20260505101008 | 44 | 232 | 0.0 | 8.0 | 0.00 | 0.00 | 0.00 | 34 | 1004.2 |
| 20260505100509 | 44 | 241 | 1.0 | 10.0 | 0.00 | 0.00 | 0.00 | 34 | 1004.1 |
| 20260505100007 | 44 | 252 | 0.0 | 10.0 | 0.00 | 0.00 | 0.00 | 34 | 1004.1 |
| 20260505095507 | 44 | 248 | 0.0 | 0.0 | 0.00 | 0.00 | 0.00 | 34 | 1004.2 |
| 20260505095005 | 44 | 249 | 0.0 | 0.0 | 0.00 | 0.00 | 0.00 | 34 | 1004.2 |
| 20260505094506 | 44 | 249 | 0.0 | 0.0 | 0.00 | 0.00 | 0.00 | 34 | 1004.2 |
| 20260505094005 | 44 | 249 | 0.0 | 0.0 | 0.00 | 0.00 | 0.00 | 33 | 1004.1 |
| 20260505093503 | 45 | 249 | 0.0 | 0.0 | 0.00 | 0.00 | 0.00 | 33 | 1004.3 |
| 20260505093003 | 45 | 244 | 0.0 | 2.0 | 0.00 | 0.00 | 0.00 | 33 | 1004.1 |
| 20260505092502 | 45 | 229 | 0.0 | 2.0 | 0.00 | 0.00 | 0.00 | 32 | 1003.9 |
| 20260505092003 | 45 | 251 | 0.0 | 2.0 | 0.00 | 0.00 | 0.00 | 32 | 1004.1 |
| 20260505091502 | 45 | 234 | 0.0 | 0.0 | 0.00 | 0.00 | 0.00 | 32 | 1004.2 |
| 20260505091001 | 45 | 239 | 0.0 | 0.0 | 0.00 | 0.00 | 0.00 | 32 | 1004.2 |
| 20260505090600 | 45 | 238 | 0.0 | 0.0 | 0.00 | 0.00 | 0.00 | 32 | 1004.2 |
| 20260505090059 | 45 | 241 | 0.0 | 0.0 | 0.00 | 0.00 | 0.00 | 32 | 1004.3 |
| 20260505085559 | 45 | 235 | 0.0 | 1.0 | 0.00 | 0.00 | 0.00 | 31 | 1004.2 |
| 20260505085059 | 45 | 246 | 0.0 | 1.0 | 0.00 | 0.00 | 0.00 | 31 | 1004.2 |
| 20260505084558 | 45 | 234 | 0.0 | 0.0 | 0.00 | 0.00 | 0.00 | 31 | 1004.2 |
| 20260505084057 | 45 | 250 | 0.0 | 0.0 | 0.00 | 0.00 | 0.00 | 31 | 1004.2 |
| 20260505083555 | 45 | 249 | 0.0 | 1.0 | 0.00 | 0.00 | 0.00 | 31 | 1004.4 |
| 20260505083057 | 46 | 242 | 0.0 | 1.0 | 0.00 | 0.00 | 0.00 | 31 | 1004.6 |
| 20260505082553 | 46 | 231 | 0.0 | 7.0 | 0.00 | 0.00 | 0.00 | 31 | 1004.6 |
| 20260505082053 | 46 | 232 | 0.0 | 8.0 | 0.00 | 0.00 | 0.00 | 30 | 1004.8 |
| 20260505081553 | 46 | 248 | 0.0 | 8.0 | 0.00 | 0.00 | 0.00 | 30 | 1004.8 |
| 20260505081052 | 46 | 227 | 0.0 | 8.0 | 0.00 | 0.00 | 0.00 | 30 | 1004.8 |
| 20260505080551 | 46 | 238 | 0.0 | 9.0 | 0.00 | 0.00 | 0.00 | 30 | 1005.0 |
| 20260505080059 | 46 | 234 | 0.0 | 9.0 | 0.00 | 0.00 | 0.00 | 30 | 1004.9 |
| 20260505075551 | 46 | 250 | 0.0 | 4.0 | 0.00 | 0.00 | 0.00 | 30 | 1005.0 |
| 20260505075051 | 46 | 237 | 0.0 | 4.0 | 0.00 | 0.00 | 0.00 | 30 | 1005.2 |
| 20260505074550 | 46 | 242 | 0.0 | 4.0 | 0.00 | 0.00 | 0.00 | 30 | 1005.0 |
| 20260505074050 | 46 | 237 | 0.0 | 0.0 | 0.00 | 0.00 | 0.00 | 30 | 1005.1 |
| 20260505073549 | 46 | 235 | 0.0 | 0.0 | 0.00 | 0.00 | 0.00 | 30 | 1005.1 |
| 20260505073048 | 47 | 244 | 0.0 | 0.0 | 0.00 | 0.00 | 0.00 | 30 | 1005.1 |
| 20260505072547 | 47 | 219 | 0.0 | 9.0 | 0.00 | 0.00 | 0.00 | 29 | 1005.1 |
| 20260505072046 | 47 | 223 | 1.0 | 9.0 | 0.00 | 0.00 | 0.00 | 29 | 1005.0 |
| 20260505071546 | 47 | 238 | 0.0 | 5.0 | 0.00 | 0.00 | 0.00 | 29 | 1005.2 |
| 20260505071046 | 47 | 233 | 0.0 | 0.0 | 0.00 | 0.00 | 0.00 | 29 | 1005.1 |
| 20260505070545 | 48 | 234 | 0.0 | 1.0 | 0.00 | 0.00 | 0.00 | 29 | 1005.1 |
| 20260505070048 | 48 | 247 | 0.0 | 3.0 | 0.00 | 0.00 | 0.00 | 29 | 1005.1 |
| 20260505065544 | 48 | 238 | 0.0 | 3.0 | 0.00 | 0.00 | 0.00 | 29 | 1005.2 |
| 20260505065043 | 48 | 237 | 0.0 | 12.0 | 0.00 | 0.00 | 0.00 | 29 | 1005.0 |
| 20260505064545 | 48 | 267 | 2.0 | 12.0 | 0.00 | 0.00 | 0.00 | 28 | 1004.8 |
| 20260505064041 | 48 | 252 | 0.0 | 1.0 | 0.00 | 0.00 | 0.00 | 29 | 1004.9 |
| 20260505063543 | 49 | 250 | 0.0 | 11.0 | 0.00 | 0.00 | 0.00 | 29 | 1005.0 |
| 20260505063039 | 49 | 255 | 0.0 | 15.0 | 0.00 | 0.00 | 0.00 | 29 | 1004.9 |
| 20260505062538 | 49 | 259 | 1.0 | 12.0 | 0.00 | 0.00 | 0.00 | 29 | 1004.9 |
| 20260505062036 | 49 | 254 | 0.0 | 11.0 | 0.00 | 0.00 | 0.00 | 30 | 1004.7 |
| 20260505061536 | 49 | 231 | 0.0 | 9.0 | 0.00 | 0.00 | 0.00 | 29 | 1004.8 |
| 20260505061035 | 50 | 230 | 0.0 | 1.0 | 0.00 | 0.00 | 0.00 | 29 | 1004.8 |
| 20260505060534 | 50 | 240 | 0.0 | 1.0 | 0.00 | 0.00 | 0.00 | 29 | 1004.8 |
| 20260505060037 | 50 | 228 | 0.0 | 1.0 | 0.00 | 0.00 | 0.00 | 29 | 1004.8 |
| 20260505055534 | 50 | 246 | 0.0 | 10.0 | 0.00 | 0.00 | 0.00 | 29 | 1004.6 |
| 20260505055032 | 51 | 246 | 0.0 | 10.0 | 0.00 | 0.00 | 0.00 | 30 | 1004.5 |
| 20260505054533 | 51 | 232 | 0.0 | 2.0 | 0.00 | 0.00 | 0.00 | 30 | 1004.5 |
| 20260505054036 | 51 | 248 | 0.0 | 2.0 | 0.00 | 0.00 | 0.00 | 30 | 1004.4 |
| 20260505053533 | 51 | 257 | 0.0 | 0.0 | 0.00 | 0.00 | 0.00 | 30 | 1004.3 |
| 20260505053054 | 51 | 258 | 0.0 | 0.0 | 0.00 | 0.00 | 0.00 | 31 | 1004.5 |
| 20260505052532 | 51 | 257 | 0.0 | 0.0 | 0.00 | 0.00 | 0.00 | 30 | 1004.4 |
| 20260505052036 | 51 | 257 | 0.0 | 0.0 | 0.00 | 0.00 | 0.00 | 30 | 1004.2 |
| 20260505051531 | 51 | 257 | 0.0 | 0.0 | 0.00 | 0.00 | 0.00 | 30 | 1004.2 |
| 20260505051032 | 51 | 257 | 0.0 | 0.0 | 0.00 | 0.00 | 0.00 | 30 | 1004.3 |
| 20260505050532 | 51 | 257 | 0.0 | 0.0 | 0.00 | 0.00 | 0.00 | 30 | 1004.3 |
| 20260505041533 | 51 | 257 | 0.0 | 0.0 | 0.00 | 0.00 | 0.00 | 30 | 1004.3 |
| 20260505041029 | 51 | 257 | 0.0 | 0.0 | 0.00 | 0.00 | 0.00 | 30 | 1004.3 |
| 20260505040529 | 51 | 257 | 0.0 | 0.0 | 0.00 | 0.00 | 0.00 | 30 | 1004.2 |
| 20260505040029 | 51 | 257 | 0.0 | 0.0 | 0.00 | 0.00 | 0.00 | 30 | 1004.1 |
| 20260505035531 | 51 | 257 | 0.0 | 0.0 | 0.00 | 0.00 | 0.00 | 30 | 1004.0 |
| 20260505035029 | 51 | 257 | 0.0 | 0.0 | 0.00 | 0.00 | 0.00 | 30 | 1004.1 |
| 20260505034532 | 51 | 257 | 0.0 | 0.0 | 0.00 | 0.00 | 0.00 | 30 | 1004.0 |
| 20260505034031 | 51 | 257 | 0.0 | 0.0 | 0.00 | 0.00 | 0.00 | 30 | 1004.1 |
| 20260505033531 | 51 | 257 | 0.0 | 0.0 | 0.00 | 0.00 | 0.00 | 30 | 1004.1 |
| 20260505033027 | 51 | 257 | 0.0 | 0.0 | 0.00 | 0.00 | 0.00 | 30 | 1003.9 |
| 20260505032527 | 51 | 257 | 0.0 | 0.0 | 0.00 | 0.00 | 0.00 | 31 | 1003.9 |
| 20260505032028 | 51 | 257 | 0.0 | 0.0 | 0.00 | 0.00 | 0.00 | 30 | 1003.8 |
| 20260505031527 | 51 | 257 | 0.0 | 0.0 | 0.00 | 0.00 | 0.00 | 30 | 1003.7 |
| 20260505031030 | 51 | 257 | 0.0 | 0.0 | 0.00 | 0.00 | 0.00 | 30 | 1003.8 |
| 20260505030527 | 52 | 257 | 0.0 | 0.0 | 0.00 | 0.00 | 0.00 | 30 | 1003.7 |
| 20260505030026 | 52 | 257 | 0.0 | 0.0 | 0.00 | 0.00 | 0.00 | 30 | 1003.7 |
| 20260505025527 | 52 | 257 | 0.0 | 0.0 | 0.00 | 0.00 | 0.00 | 29 | 1003.8 |
| 20260505025027 | 52 | 257 | 0.0 | 0.0 | 0.00 | 0.00 | 0.00 | 29 | 1003.8 |
| 20260505024526 | 52 | 257 | 0.0 | 0.0 | 0.00 | 0.00 | 0.00 | 29 | 1003.6 |
| 20260505024030 | 53 | 257 | 0.0 | 0.0 | 0.00 | 0.00 | 0.00 | 29 | 1003.6 |
| 20260505023525 | 53 | 257 | 0.0 | 0.0 | 0.00 | 0.00 | 0.00 | 28 | 1003.6 |
| 20260505023025 | 53 | 257 | 0.0 | 0.0 | 0.00 | 0.00 | 0.00 | 28 | 1003.7 |
| 20260505022525 | 53 | 257 | 0.0 | 0.0 | 0.00 | 0.00 | 0.00 | 28 | 1003.6 |
| 20260505022026 | 53 | 257 | 0.0 | 0.0 | 0.00 | 0.00 | 0.00 | 28 | 1003.6 |
| 20260505021525 | 53 | 257 | 0.0 | 0.0 | 0.00 | 0.00 | 0.00 | 28 | 1003.5 |
| 20260505021025 | 53 | 257 | 0.0 | 0.0 | 0.00 | 0.00 | 0.00 | 28 | 1003.6 |
| 20260505020524 | 53 | 257 | 0.0 | 0.0 | 0.00 | 0.00 | 0.00 | 28 | 1003.5 |
| 20260505020024 | 54 | 257 | 0.0 | 0.0 | 0.00 | 0.00 | 0.00 | 27 | 1003.5 |
| 20260505015524 | 54 | 257 | 0.0 | 0.0 | 0.00 | 0.00 | 0.00 | 27 | 1003.5 |
| 20260505015023 | 54 | 257 | 0.0 | 0.0 | 0.00 | 0.00 | 0.00 | 27 | 1003.6 |
| 20260505014523 | 54 | 257 | 0.0 | 0.0 | 0.00 | 0.00 | 0.00 | 27 | 1003.6 |
| 20260505014023 | 54 | 257 | 0.0 | 0.0 | 0.00 | 0.00 | 0.00 | 26 | 1003.5 |
| 20260505013527 | 54 | 257 | 0.0 | 0.0 | 0.00 | 0.00 | 0.00 | 27 | 1003.5 |
| 20260505013022 | 55 | 257 | 0.0 | 0.0 | 0.00 | 0.00 | 0.00 | 26 | 1003.5 |
| 20260505012524 | 55 | 257 | 0.0 | 0.0 | 0.00 | 0.00 | 0.00 | 26 | 1003.4 |
| 20260505012022 | 55 | 257 | 0.0 | 0.0 | 0.00 | 0.00 | 0.00 | 25 | 1003.4 |
| 20260505011543 | 55 | 257 | 0.0 | 1.0 | 0.00 | 0.00 | 0.00 | 25 | 1003.5 |
| 20260505011024 | 55 | 258 | 0.0 | 4.0 | 0.00 | 0.00 | 0.00 | 25 | 1003.4 |
| 20260505010522 | 56 | 258 | 0.0 | 4.0 | 0.00 | 0.00 | 0.00 | 25 | 1003.5 |
| 20260505010021 | 56 | 242 | 0.0 | 2.0 | 0.00 | 0.00 | 0.00 | 24 | 1003.5 |
| 20260505005521 | 56 | 234 | 0.0 | 0.0 | 0.00 | 0.00 | 0.00 | 24 | 1003.4 |
| 20260505005021 | 56 | 234 | 0.0 | 0.0 | 0.00 | 0.00 | 0.00 | 24 | 1003.4 |
| 20260505004521 | 56 | 242 | 0.0 | 0.0 | 0.00 | 0.00 | 0.00 | 25 | 1003.3 |
| 20260505004021 | 56 | 243 | 0.0 | 0.0 | 0.00 | 0.00 | 0.00 | 24 | 1003.3 |
| 20260505003519 | 57 | 241 | 0.0 | 0.0 | 0.00 | 0.00 | 0.00 | 25 | 1003.4 |
| 20260505003018 | 57 | 254 | 0.0 | 0.0 | 0.00 | 0.00 | 0.00 | 24 | 1003.5 |
| 20260505002519 | 57 | 296 | 0.0 | 8.0 | 0.00 | 0.00 | 0.00 | 24 | 1003.5 |
| 20260505002019 | 57 | 223 | 0.0 | 8.0 | 0.00 | 0.00 | 0.00 | 24 | 1003.5 |
| 20260505001518 | 57 | 224 | 0.0 | 8.0 | 0.00 | 0.00 | 0.00 | 24 | 1003.5 |
| 20260505001020 | 57 | 259 | 0.0 | 1.0 | 0.00 | 0.00 | 0.00 | 24 | 1003.6 |
| 20260505000519 | 57 | 248 | 0.0 | 7.0 | 0.00 | 0.00 | 0.00 | 25 | 1003.5 |
| 20260505000018 | 57 | 250 | 0.0 | 7.0 | 0.00 | 0.00 | 0.00 | 25 | 1003.6 |
| 20260504235518 | 57 | 239 | 0.0 | 10.0 | 0.00 | 0.00 | 0.00 | 25 | 1003.6 |
| 20260504235017 | 57 | 228 | 0.0 | 10.0 | 0.00 | 0.00 | 0.00 | 24 | 1003.6 |
| 20260504234517 | 57 | 229 | 0.0 | 12.0 | 0.00 | 0.00 | 0.00 | 25 | 1003.9 |
| 20260504234016 | 57 | 216 | 1.0 | 15.0 | 0.00 | 0.00 | 0.00 | 25 | 1003.8 |
| 20260504233516 | 57 | 233 | 2.0 | 17.0 | 0.00 | 0.00 | 0.00 | 25 | 1003.8 |
| 20260504233016 | 58 | 254 | 8.0 | 17.0 | 0.00 | 0.00 | 0.00 | 24 | 1003.8 |
| 20260504232516 | 58 | 269 | 0.0 | 15.0 | 0.00 | 0.00 | 0.00 | 24 | 1003.7 |
| 20260504232015 | 58 | 249 | 0.0 | 18.0 | 0.00 | 0.00 | 0.00 | 26 | 1003.7 |
| 20260504231515 | 58 | 252 | 3.0 | 16.0 | 0.00 | 0.00 | 0.00 | 25 | 1003.8 |
| 20260504231015 | 58 | 226 | 1.0 | 11.0 | 0.00 | 0.00 | 0.00 | 24 | 1003.8 |
| 20260504230515 | 58 | 236 | 2.0 | 17.0 | 0.00 | 0.00 | 0.00 | 25 | 1003.7 |
| 20260504230014 | 58 | 248 | 3.0 | 17.0 | 0.00 | 0.00 | 0.00 | 25 | 1003.8 |
| 20260504225513 | 58 | 227 | 0.0 | 12.0 | 0.00 | 0.00 | 0.00 | 27 | 1003.7 |
| 20260504225013 | 57 | 232 | 0.0 | 19.0 | 0.00 | 0.00 | 0.00 | 28 | 1003.6 |
| 20260504224514 | 57 | 243 | 10.0 | 19.0 | 0.00 | 0.00 | 0.00 | 27 | 1003.6 |
| 20260504224013 | 58 | 240 | 2.0 | 16.0 | 0.00 | 0.00 | 0.00 | 27 | 1003.5 |
| 20260504223516 | 58 | 219 | 0.0 | 15.0 | 0.00 | 0.00 | 0.00 | 28 | 1003.5 |
| 20260504223013 | 58 | 225 | 0.0 | 16.0 | 0.00 | 0.00 | 0.00 | 27 | 1003.5 |
| 20260504222511 | 57 | 235 | 4.0 | 14.0 | 0.00 | 0.00 | 0.00 | 28 | 1003.6 |
| 20260504222011 | 57 | 227 | 0.0 | 22.0 | 0.00 | 0.00 | 0.00 | 28 | 1003.8 |
| 20260504221512 | 58 | 238 | 2.0 | 14.0 | 0.00 | 0.00 | 0.00 | 29 | 1003.7 |
| 20260504221017 | 58 | 252 | 3.0 | 14.0 | 0.00 | 0.00 | 0.00 | 28 | 1003.6 |
| 20260504220511 | 58 | 232 | 0.0 | 15.0 | 0.00 | 0.00 | 0.00 | 28 | 1003.7 |
| 20260504220011 | 58 | 227 | 5.0 | 16.0 | 0.00 | 0.00 | 0.00 | 27 | 1003.8 |
| 20260504215511 | 59 | 228 | 1.0 | 16.0 | 0.00 | 0.00 | 0.00 | 28 | 1003.8 |
| 20260504215009 | 59 | 256 | 6.0 | 16.0 | 0.00 | 0.00 | 0.00 | 27 | 1003.7 |
| 20260504214510 | 58 | 306 | 4.0 | 15.0 | 0.00 | 0.00 | 0.00 | 29 | 1003.7 |
| 20260504214008 | 59 | 237 | 0.0 | 15.0 | 0.00 | 0.00 | 0.00 | 26 | 1004.0 |
| 20260504213508 | 59 | 224 | 5.0 | 15.0 | 0.00 | 0.00 | 0.00 | 27 | 1004.1 |
| 20260504213006 | 59 | 249 | 0.0 | 13.0 | 0.00 | 0.00 | 0.00 | 30 | 1004.0 |
| 20260504212505 | 59 | 274 | 0.0 | 13.0 | 0.00 | 0.00 | 0.00 | 30 | 1004.2 |
| 20260504212004 | 59 | 228 | 3.0 | 15.0 | 0.00 | 0.00 | 0.00 | 32 | 1004.4 |
| 20260504211504 | 59 | 264 | 5.0 | 15.0 | 0.00 | 0.00 | 0.00 | 33 | 1004.4 |
| 20260504211003 | 59 | 182 | 0.0 | 12.0 | 0.00 | 0.00 | 0.00 | 33 | 1004.4 |
| 20260504210502 | 58 | 200 | 2.0 | 12.0 | 0.00 | 0.00 | 0.00 | 35 | 1004.4 |
| 20260504210001 | 57 | 240 | 0.0 | 11.0 | 0.00 | 0.00 | 0.00 | 33 | 1004.4 |
| 20260504205502 | 58 | 238 | 1.0 | 13.0 | 0.00 | 0.00 | 0.00 | 34 | 1004.4 |
| 20260504205001 | 58 | 269 | 2.0 | 13.0 | 0.00 | 0.00 | 0.00 | 34 | 1004.6 |
| 20260504204615 | 58 | 223 | 2.0 | 12.0 | 0.00 | 0.00 | 0.00 | 35 | 1004.8 |
| 20260504204059 | 58 | 240 | 0.0 | 14.0 | 0.00 | 0.00 | 0.00 | 35 | 1004.8 |
| 20260504203600 | 58 | 227 | 0.0 | 12.0 | 0.00 | 0.00 | 0.00 | 35 | 1004.7 |
| 20260504203100 | 58 | 230 | 0.0 | 10.0 | 0.00 | 0.00 | 0.00 | 36 | 1004.8 |
| 20260504202555 | 57 | 206 | 0.0 | 10.0 | 0.00 | 0.00 | 0.00 | 37 | 1004.9 |
| 20260504202058 | 57 | 259 | 0.0 | 14.0 | 0.00 | 0.00 | 0.00 | 37 | 1005.1 |
| 20260504201555 | 56 | 229 | 0.0 | 18.0 | 0.00 | 0.00 | 0.00 | 37 | 1005.1 |
| 20260504201055 | 57 | 242 | 7.0 | 18.0 | 0.00 | 0.00 | 0.00 | 36 | 1004.9 |
| 20260504200554 | 57 | 234 | 0.0 | 10.0 | 0.00 | 0.00 | 0.00 | 37 | 1005.0 |
| 20260504200059 | 57 | 205 | 0.0 | 15.0 | 0.00 | 0.00 | 0.00 | 37 | 1005.2 |
| 20260504195551 | 56 | 222 | 5.0 | 15.0 | 0.00 | 0.00 | 0.00 | 37 | 1005.3 |
| 20260504195051 | 56 | 207 | 0.0 | 10.0 | 0.00 | 0.00 | 0.00 | 39 | 1005.1 |
| 20260504194600 | 56 | 272 | 0.0 | 3.0 | 0.00 | 0.00 | 0.00 | 38 | 1005.0 |
| 20260504194051 | 55 | 234 | 0.0 | 14.0 | 0.00 | 0.00 | 0.00 | 39 | 1005.0 |
| 20260504193551 | 56 | 233 | 5.0 | 14.0 | 0.00 | 0.00 | 0.00 | 38 | 1005.1 |
| 20260504193053 | 56 | 247 | 0.0 | 5.0 | 0.00 | 0.00 | 0.00 | 39 | 1005.2 |
| 20260504192551 | 55 | 247 | 0.0 | 14.0 | 0.00 | 0.00 | 0.00 | 40 | 1005.1 |
| 20260504192050 | 55 | 248 | 0.0 | 14.0 | 0.00 | 0.00 | 0.00 | 40 | 1005.1 |
| 20260504191606 | 55 | 230 | 2.0 | 12.0 | 0.00 | 0.00 | 0.00 | 40 | 1005.0 |
| 20260504191050 | 56 | 227 | 0.0 | 11.0 | 0.00 | 0.00 | 0.00 | 40 | 1005.1 |
| 20260504190552 | 56 | 233 | 2.0 | 11.0 | 0.00 | 0.00 | 0.00 | 40 | 1005.1 |
| 20260504190050 | 56 | 240 | 0.0 | 10.0 | 0.00 | 0.00 | 0.00 | 41 | 1005.3 |
| 20260504185547 | 56 | 197 | 0.0 | 10.0 | 0.00 | 0.00 | 0.00 | 40 | 1005.3 |
| 20260504185047 | 56 | 213 | 0.0 | 7.0 | 0.00 | 0.00 | 0.00 | 44 | 1005.2 |
| 20260504184547 | 56 | 223 | 0.0 | 1.0 | 0.00 | 0.00 | 0.00 | 45 | 1005.3 |
| 20260504184045 | 55 | 225 | 0.0 | 4.0 | 0.00 | 0.00 | 0.00 | 47 | 1005.4 |
| 20260504183545 | 55 | 228 | 0.0 | 4.0 | 0.00 | 0.00 | 0.00 | 47 | 1005.4 |
| 20260504183045 | 55 | 238 | 0.0 | 4.0 | 0.00 | 0.00 | 0.00 | 47 | 1005.5 |
| 20260504182545 | 55 | 233 | 0.0 | 3.0 | 0.00 | 0.00 | 0.00 | 47 | 1005.6 |
| 20260504182044 | 54 | 238 | 0.0 | 11.0 | 0.00 | 0.00 | 0.00 | 48 | 1005.6 |
| 20260504181548 | 54 | 250 | 0.0 | 4.0 | 0.00 | 0.00 | 0.00 | 46 | 1005.6 |
| 20260504181044 | 55 | 238 | 0.0 | 1.0 | 0.00 | 0.00 | 0.00 | 47 | 1005.5 |
| 20260504180543 | 55 | 200 | 0.0 | 0.0 | 0.00 | 0.00 | 0.00 | 47 | 1005.6 |
| 20260504180044 | 55 | 192 | 0.0 | 5.0 | 0.00 | 0.00 | 0.00 | 47 | 1005.4 |
| 20260504175543 | 55 | 218 | 0.0 | 5.0 | 0.00 | 0.00 | 0.00 | 47 | 1005.4 |
| 20260504175042 | 55 | 223 | 0.0 | 9.0 | 0.00 | 0.00 | 0.00 | 47 | 1005.4 |
| 20260504174541 | 54 | 249 | 0.0 | 9.0 | 0.00 | 0.00 | 0.00 | 49 | 1005.5 |
| 20260504174041 | 54 | 216 | 0.0 | 5.0 | 0.00 | 0.00 | 0.00 | 48 | 1005.5 |
| 20260504173541 | 54 | 195 | 0.0 | 0.0 | 0.00 | 0.00 | 0.00 | 49 | 1005.7 |
| 20260504173039 | 54 | 232 | 0.0 | 8.0 | 0.00 | 0.00 | 0.00 | 50 | 1005.7 |
| 20260504172543 | 53 | 233 | 0.0 | 8.0 | 0.00 | 0.00 | 0.00 | 50 | 1005.7 |
| 20260504172041 | 54 | 239 | 0.0 | 3.0 | 0.00 | 0.00 | 0.00 | 50 | 1005.8 |
| 20260504171547 | 54 | 236 | 0.0 | 1.0 | 0.00 | 0.00 | 0.00 | 50 | 1005.7 |
| 20260504171041 | 54 | 223 | 0.0 | 0.0 | 0.00 | 0.00 | 0.00 | 48 | 1005.6 |
| 20260504170540 | 54 | 127 | 0.0 | 0.0 | 0.00 | 0.00 | 0.00 | 48 | 1005.6 |
| 20260504151030 | 51 | 319 | 0.0 | 0.0 | 0.00 | 0.00 | 0.00 | 53 | 1006.4 |
| 20260504150527 | 51 | 319 | 0.0 | 0.0 | 0.00 | 0.00 | 0.00 | 52 | 1006.5 |
| 20260504141025 | 47 | 316 | 0.0 | 0.0 | 0.00 | 0.00 | 0.00 | 62 | 1006.7 |
| 20260504140527 | 47 | 316 | 0.0 | 0.0 | 0.00 | 0.00 | 0.00 | 64 | 1006.6 |
| 20260504130520 | 46 | 316 | 0.0 | 0.0 | 0.00 | 0.00 | 0.00 | 62 | 1006.1 |